CAPE
0 0 0 0 0 0 0 0 6 2 0 0 0 0 0 0 0 0 0 0 0 0 0 0 0 0 0 1 5 10 18 26 32 27 24 31 39 40
0 0 0 0 0 0 0 0 0 3 0 0 0 0 0 0 0 0 0 0 0 0 0 0 0 2 11 7 18 17 17 16 22 21 29 30 27 24
0 0 0 0 0 0 0 0 0 0 0 0 0 0 0 0 0 0 0 0 0 0 0 0 1 2 0 0 0 1 5 10 10 14 14 16 19 10
0 0 0 0 0 0 0 0 0 0 0 0 0 0 0 0 0 0 0 0 0 0 0 0 0 0 0 0 0 0 0 3 13 11 8 6 8 11
0 0 0 0 0 0 0 0 0 0 0 0 0 0 0 0 0 0 0 0 0 0 0 0 0 0 0 0 1 2 3 4 0 0 0 0 0 0
0 0 0 0 0 0 0 0 0 0 0 0 0 0 0 0 0 0 0 0 0 0 0 0 0 0 0 0 0 0 0 1 0 0 0 0 0 0
0 0 0 0 0 0 0 0 0 0 0 0 0 0 0 0 0 0 0 0 0 0 0 0 0 0 0 0 0 0 0 0 0 0 0 0 1 0
0 0 0 0 0 0 0 0 0 0 0 0 0 0 0 0 0 0 0 0 0 0 0 0 0 0 0 0 0 0 0 0 0 0 0 0 0 0
0 0 0 0 0 0 0 0 0 0 0 0 0 0 0 0 0 0 0 0 0 0 0 0 0 0 0 0 0 0 0 0 3 1 1 0 0 0
0 0 0 0 0 0 0 0 0 0 0 0 0 0 0 0 0 0 0 0 0 0 0 1 0 0 0 0 0 0 0 0 0 4 1 0 0 0
0 0 0 0 0 0 0 0 0 0 0 0 0 0 0 0 0 0 0 0 0 0 0 0 0 0 0 0 0 0 0 0 0 0 3 5 2 0
0 0 0 0 0 0 0 0 0 0 0 0 0 0 0 0 0 0 0 0 0 0 0 0 0 0 0 0 0 0 0 0 0 0 1 5 1 1
0 0 0 0 0 0 0 0 0 0 0 0 0 0 0 0 0 0 0 0 0 0 0 0 0 0 2 0 0 0 0 0 0 0 0 1 0 4
0 0 1 0 0 0 0 0 0 0 0 0 0 0 0 0 0 0 0 0 0 0 0 0 0 0 0 0 0 0 0 0 0 0 1 0 0 1
0 0 1 1 1 1 0 0 0 0 0 0 0 0 0 0 0 0 0 0 0 0 0 0 0 0 0 0 1 1 0 0 0 0 0 0 0 0
0 2 0 1 1 2 0 1 0 0 0 0 0 0 0 0 0 0 0 0 0 0 0 0 0 0 0 0 0 0 0 0 0 0 0 0 0 0
0 1 0 1 1 0 0 0 0 0 0 0 0 0 0 0 0 0 0 0 0 0 0 0 0 0 0 0 0 0 0 0 0 0 0 0 0 2
0 0 0 0 0 0 0 0 0 0 0 0 0 0 0 0 0 0 0 0 0 0 0 0 0 0 0 0 0 0 0 0 0 0 1 0 1 1
0 0 0 0 0 1 1 0 0 0 0 0 0 0 0 0 0 0 0 0 0 0 0 0 0 0 0 0 0 0 0 1 0 0 0 1 1 0
1 0 0 0 0 0 0 0 0 0 0 0 0 0 0 0 0 0 0 0 0 0 0 0 0 0 0 0 0 0 0 0 0 0 0 0 0 0
0 0 0 0 0 0 0 0 0 0 0 0 0 0 0 0 0 0 0 0 0 0 0 0 0 0 0 0 0 0 0 0 1 0 2 0 0 0
2 1 0 0 0 0 0 0 0 0 0 0 0 0 0 0 0 0 0 0 0 0 0 0 0 0 0 0 0 0 0 0 0 0 0 1 0 0
0 0 1 0 0 0 0 0 0 0 0 0 0 0 0 0 0 0 0 0 0 0 0 0 0 0 0 0 0 0 0 0 0 0 0 0 0 0
CIN
0 0 0 0 0 0 0 0 -5 -2 -4 0 0 0 0 0 0 0 0 0 0 0 0 0 0 0 0 -1 -1 -2 -1 -2 -3 -2 -2 -2 -2 -2
0 0 0 0 0 0 0 0 0 -3 0 0 0 0 0 0 0 0 0 0 0 0 0 0 -1 -1 -1 -1 -1 -1 -2 -2 -2 -1 -2 -2 -2 -2
0 0 0 0 0 0 0 0 0 0 0 0 0 0 0 0 0 0 0 0 0 0 0 0 0 -1 -1 0 -1 -1 -1 -1 -1 -2 -1 -2 -2 -2
0 0 0 0 0 0 0 0 0 0 0 0 0 0 0 0 0 0 0 0 0 0 0 0 0 0 0 0 0 0 0 0 0 0 0 -1 -1 -1
0 0 0 0 0 0 0 0 0 0 0 0 0 0 0 0 0 0 0 0 0 0 0 0 0 0 0 0 0 -1 0 0 0 0 0 0 0 0
0 0 0 0 0 0 0 0 0 0 0 0 0 0 0 0 0 0 0 0 0 0 0 0 0 0 0 0 0 0 0 0 0 0 0 0 0 0
0 0 0 0 0 0 0 0 0 0 0 0 0 0 0 0 0 0 0 0 0 0 0 0 0 0 0 0 0 0 0 0 0 0 0 0 0 0
0 0 0 0 0 0 0 0 0 0 0 0 0 0 0 0 0 0 0 0 0 0 0 0 0 0 0 0 0 0 0 0 0 0 0 0 0 0
0 0 0 0 0 0 0 0 0 0 0 0 0 0 0 0 0 0 0 0 0 0 0 0 0 0 0 0 0 0 0 0 -3 0 0 0 0 0
0 0 0 0 0 0 0 0 0 0 0 0 0 0 0 0 0 0 0 0 0 0 0 0 0 0 0 0 0 0 0 0 0 -6 -3 0 0 0
0 0 0 0 0 0 0 0 0 0 0 0 0 0 0 0 0 0 0 0 0 0 0 0 0 0 0 0 0 0 0 0 0 0 0 0 0 0
0 0 0 0 0 0 0 0 0 0 0 0 0 0 0 0 0 0 0 0 0 0 0 0 0 0 0 0 0 0 0 0 0 0 0 0 0 0
0 0 0 0 0 0 0 0 0 0 0 0 0 0 0 0 0 0 0 0 0 0 0 0 0 0 0 0 0 0 0 0 0 0 0 0 0 -1
0 0 0 0 0 0 0 0 0 0 0 0 0 0 0 0 0 0 0 0 0 0 0 0 0 0 0 0 0 0 0 0 0 0 0 0 0 -11
0 0 0 0 0 0 0 0 0 0 0 0 0 0 0 0 0 0 0 0 0 0 0 0 0 0 0 0 0 0 0 0 0 0 0 0 -1 0
0 0 0 0 0 0 0 0 0 0 0 0 0 0 0 0 0 0 0 0 0 0 0 0 0 0 0 0 0 0 0 0 0 0 0 0 0 0
0 0 0 0 0 0 0 0 0 0 0 0 0 0 0 0 0 0 0 0 0 0 0 0 0 0 0 0 0 0 0 0 0 0 0 0 0 0
0 0 0 0 0 0 0 0 0 0 0 0 0 0 0 0 0 0 0 0 0 0 0 0 0 0 0 0 0 0 0 0 0 0 0 0 0 0
0 0 0 0 0 0 0 0 0 0 0 0 0 0 0 0 0 0 0 0 0 0 0 0 0 0 0 0 0 0 0 0 0 0 0 0 0 0
0 0 0 0 0 0 0 0 0 0 0 0 0 0 0 0 0 0 0 0 0 0 0 0 0 0 0 0 0 0 0 0 0 0 0 0 0 0
0 -2 0 0 0 0 0 0 0 0 0 0 0 0 0 0 0 0 0 0 0 0 0 0 0 0 0 0 0 0 0 0 0 0 0 0 0 0
0 0 0 0 0 0 0 0 0 0 0 0 0 0 0 0 0 0 0 0 0 0 0 0 0 0 0 0 0 0 0 0 0 0 0 0 0 0
0 0 0 0 0 0 0 0 0 0 0 0 0 0 0 0 0 0 0 0 0 0 0 0 0 0 0 0 0 0 0 0 0 0 0 0 0 0
Wind_Speed
29 30 31 32 31 31 30 31 34 43 42 32 32 27 30 36 36 36 36 37 36 37 37 38 38 39 39 40 42 43 43 44 44 45 46 45 46 46
28 29 31 32 31 29 28 29 29 33 38 30 30 29 31 34 33 35 36 36 35 35 35 36 37 37 37 38 39 40 41 41 41 42 42 42 43 44
27 29 31 30 31 29 29 29 30 28 34 31 29 29 32 33 34 34 34 34 33 34 35 36 37 37 38 37 37 37 38 39 40 41 41 43 43 43
29 31 33 30 30 30 29 29 28 27 29 34 31 30 30 31 32 34 33 33 32 32 35 38 37 35 35 35 35 36 36 37 37 39 41 43 44 44
30 32 31 30 30 30 29 28 27 26 26 28 31 28 29 30 32 32 32 32 32 36 38 37 33 31 31 34 35 36 37 37 38 39 40 40 41 43
29 29 30 30 31 30 27 25 25 26 25 26 28 29 28 29 30 32 37 33 35 33 31 28 29 32 34 33 33 32 33 34 36 38 39 40 39 41
30 31 31 30 29 26 25 25 24 24 24 25 27 28 29 30 30 32 36 36 34 28 28 31 30 31 30 34 33 33 33 34 34 36 37 39 40 41
32 32 31 29 28 26 24 22 21 21 22 24 26 28 28 27 27 31 34 37 37 27 34 36 30 32 32 31 31 30 32 33 33 34 35 37 40 40
32 33 32 29 28 27 25 21 19 19 19 21 24 24 25 23 26 29 30 32 35 35 33 34 29 30 32 32 28 28 30 31 30 30 30 33 37 38
32 32 31 30 28 26 24 23 20 19 18 18 19 20 18 21 22 24 28 30 29 30 25 29 28 31 36 31 25 24 23 24 30 29 30 34 37 39
33 31 30 29 27 24 23 22 21 19 17 17 17 16 16 20 23 25 29 32 36 35 27 22 26 35 32 27 25 25 25 24 33 31 33 39 43 41
34 32 30 28 27 24 22 20 21 18 17 19 17 16 16 19 22 22 25 29 31 33 23 29 29 28 28 21 26 28 26 28 26 26 39 39 34 31
35 34 32 29 25 22 20 18 17 17 17 17 16 16 17 19 21 21 21 22 26 25 20 25 24 26 23 26 25 26 22 25 20 23 21 29 29 27
34 33 32 28 25 21 18 17 15 16 16 16 15 16 16 18 21 20 21 21 18 16 17 17 21 22 21 18 20 25 24 20 16 22 22 21 24 25
32 31 29 26 24 21 18 16 15 15 15 14 15 14 14 16 20 21 21 22 20 19 19 20 18 20 15 12 14 19 20 20 13 27 27 24 23 22
33 31 26 23 21 21 19 17 15 14 14 14 14 14 16 16 17 20 23 23 23 23 23 22 22 21 15 7 9 11 19 16 5 17 24 24 22 20
32 28 22 21 21 21 21 18 17 16 16 15 14 14 14 14 15 19 21 22 22 24 26 26 28 26 5 4 8 10 16 14 3 21 22 20 20 20
26 23 16 17 20 21 21 17 17 17 17 14 13 15 12 10 11 17 19 19 21 22 26 28 32 30 24 16 9 12 13 12 17 21 21 21 20 20
24 20 16 16 20 22 19 16 16 18 16 14 13 12 11 10 9 14 16 18 19 21 23 25 28 27 26 22 12 13 14 9 14 22 22 21 20 20
23 16 11 16 20 21 20 16 17 18 17 15 12 12 9 9 9 12 12 15 18 20 22 24 26 24 24 20 15 9 10 11 12 15 21 21 20 19
24 20 17 20 22 20 18 15 15 17 16 13 10 10 8 7 8 12 11 13 16 18 21 24 23 12 9 14 16 12 12 14 19 22 19 19 18 17
32 28 23 20 20 19 18 15 15 16 15 12 9 10 8 5 6 9 9 11 14 17 19 20 24 21 19 21 23 21 15 13 14 19 20 18 16 16
32 31 30 30 28 26 21 16 15 17 14 11 10 10 8 6 5 8 8 10 14 16 18 22 22 20 19 19 21 21 21 19 16 19 18 17 16 15
Wind_Direction
333 334 334 334 332 331 330 329 327 324 325 329 327 329 328 327 326 325 323 321 318 315 313 310 308 306 304 302 300 297 296 294 291 289 285 283 281 279
333 334 333 333 333 334 334 332 330 327 324 329 328 328 328 328 328 327 325 323 321 319 316 313 311 308 306 304 302 299 296 293 291 289 286 283 281 279
333 332 332 333 332 332 332 332 330 329 325 329 329 330 329 329 329 330 329 327 326 322 319 315 312 309 306 305 303 301 298 295 291 287 284 280 278 278
332 332 332 334 332 332 332 331 331 331 329 326 330 330 331 333 333 332 333 331 329 326 321 315 312 312 311 309 306 302 298 295 293 290 285 281 277 275
333 332 332 332 331 330 330 329 330 330 329 328 329 333 334 336 336 336 336 334 332 325 316 315 319 320 318 313 309 305 299 294 293 290 287 285 281 279
333 333 331 330 329 329 329 329 330 330 330 329 329 331 334 337 338 336 333 337 334 333 328 330 328 322 316 316 314 313 309 302 294 292 288 287 285 283
331 331 330 330 330 330 330 329 330 329 329 329 329 332 334 336 337 338 334 337 337 338 335 332 330 327 323 314 314 314 313 308 301 295 291 287 285 284
328 329 330 330 329 327 325 325 327 327 328 329 330 331 333 336 338 338 336 335 333 342 333 328 332 324 319 321 321 322 319 314 306 299 294 289 286 283
326 327 327 328 328 327 326 325 325 325 326 329 328 331 333 337 338 339 340 340 333 332 334 328 334 330 326 325 327 326 321 314 311 309 302 296 289 285
323 324 324 325 325 326 325 324 322 322 323 326 328 330 333 336 339 342 342 342 343 341 347 335 336 330 326 335 341 334 328 324 318 315 308 301 293 284
319 321 321 321 322 322 322 321 321 320 323 325 327 330 334 336 338 341 340 339 338 336 347 346 340 324 334 346 356 350 338 330 317 319 313 300 288 279
317 319 318 317 317 316 317 317 319 320 323 326 329 331 335 335 337 342 344 341 343 342 355 339 335 339 341 359 355 349 347 330 336 335 302 292 293 282
313 317 318 315 312 311 311 311 312 321 322 324 327 329 332 333 335 341 347 349 347 346 352 345 342 336 342 345 355 354 356 346 355 347 264 286 286 280
308 311 314 314 312 309 307 305 304 316 319 320 323 324 328 331 332 340 345 349 356 355 356 354 345 337 341 349 355 357 354 1 11 1 271 268 276 280
305 305 306 310 312 310 303 304 302 308 311 313 317 319 325 329 331 337 342 348 355 1 3 356 354 344 349 352 354 1 2 3 20 342 314 307 293 288
305 302 298 300 305 308 309 300 299 301 303 304 313 319 325 328 329 334 338 344 350 357 3 3 354 349 352 356 2 8 8 16 17 338 330 293 296 295
309 308 300 301 303 308 310 301 303 299 302 303 307 315 319 325 327 331 335 342 350 354 355 359 345 343 13 14 20 30 20 30 225 305 324 300 307 302
312 311 298 303 306 309 311 300 303 299 303 301 300 309 310 318 325 330 334 341 347 353 354 352 340 331 345 15 53 38 41 50 274 311 312 303 300 306
316 305 300 304 310 312 311 304 300 305 307 306 303 304 305 315 324 332 336 340 346 350 354 356 352 346 332 344 35 40 41 75 257 306 312 304 300 301
331 314 306 311 313 312 311 305 301 304 306 307 307 305 303 312 321 332 339 343 346 349 352 354 351 358 347 356 19 61 59 54 54 263 287 291 290 297
336 330 325 318 314 314 313 308 305 302 304 306 305 301 303 311 319 328 337 343 346 348 348 342 358 38 53 23 13 45 54 40 16 349 288 294 299 301
334 333 332 327 319 320 316 311 305 302 304 304 301 301 299 302 315 329 337 341 343 345 347 352 343 5 14 352 328 350 32 53 58 21 335 325 301 297
332 329 327 324 314 318 318 314 308 302 300 303 298 297 299 297 312 328 338 340 338 339 343 335 340 358 13 15 344 331 338 5 31 4 311 306 306 308